Location: Krasnoyarskiy Pitomnik
(51.1333°N, 71.6167°E)
Time: 15:38:45
(UTC+00:00)

Cosmos 1844 - Pass Details

Date: 22 October 2021
Orbit: 822 x 868 km, 70.9° (Epoch: 27 November)

Event Time Altitude Azimuth Distance (km) Brightness Sun altitude
Rises 13:32:47 0° 331° (NNW) 3,466 7.3 -14.2°
Reaches altitude 10° 13:35:22 10° 337° (NNW) 2,524 6.5 -14.6°
Maximum altitude 13:40:58 46° 51° (NE) 1,148 4.1 -15.5°
Enters shadow 13:44:21 22° 113° (ESE) 1,782 4.8 -16.0°
